Location: Castle Hill Houses
(40.8186°N, 73.8497°W)
Time: 05:32:39
(UTC+00:00)

Cosmos 2221 - Pass Details

Date: 26 January 2020
Orbit: 593 x 616 km, 82.5° (Epoch: 25 February)

Event Time Altitude Azimuth Distance (km) Brightness Sun altitude
Rises 00:01:34 0° 352° (N) 2,845 6.0 -22.2°
Reaches altitude 10° 00:03:46 10° 352° (N) 1,940 5.1 -22.6°
Maximum altitude 00:08:04 88° 260° (W) 605 2.4 -23.5°
Drops below altitude 10° 00:12:21 10° 174° (S) 1,937 5.1 -24.3°
Sets 00:14:33 0° 174° (S) 2,838 6.0 -24.7°
